Weather History for KTTF - September, 2012

Change the Weather History Date:

Friday, September 28, 2012

  Actual Average Record
Temperature  
Mean Temperature 56 °F -  
Max Temperature 66 °F 68 °F 87 °F (1944)
Min Temperature 46 °F 47 °F 30 °F (1942)
Degree Days  
Heating Degree Days 9    
Growing Degree Days 6 (Base 50)    
Moisture  
Dew Point 46 °F    
Average Humidity 73    
Maximum Humidity 100    
Minimum Humidity 45    
Precipitation  
Precipitation 0.00 in - - ()
Sea Level Pressure  
Sea Level Pressure 30.12 in    
Wind  
Wind Speed 2 mph (ESE)    
Max Wind Speed 9 mph    
Max Gust Speed -    
Visibility 10 miles    
Events      
Averages and records for this station are not official NWS values.
T = Trace of Precipitation, MM = Missing Value Source: NWS Daily Summary

Daily Weather History Graph

Daily Weather History Graph

Search for Another Location

Airport or City:

Trip Planner

Search our weather history database for the weather conditions in past years. The results will help you decide how hot, cold, wet, or windy it might be!

Date:

Astronomy

Sep. 28, 2012 Rise Set
Actual Time 7:27 AM EDT 7:19 PM EDT
Civil Twilight 7:00 AM EDT 7:47 PM EDT
Nautical Twilight 6:27 AM EDT 8:19 PM EDT
Astronomical Twilight 5:54 AM EDT 8:52 PM EDT
Moon 6:21 PM EDT (9/28) 5:56 AM EDT (9/28)
Length of Visible Light 12h 47m
Length of Day
11h 51m
Waxing Gibbous, 98% of the Moon is Illuminated
Sep 28
Waxing Gibbous
Sep 29
Full
Oct 8
Last Quarter
Oct 15
New
Oct 21
First Quarter

Hourly Weather History & Observations

Time (EDT) Temp. Dew Point Humidity Pressure Visibility Wind Dir Wind Speed Gust Speed Precip Events Conditions
12:12 AM 48.2 °F 46.4 °F 93% 30.16 in 10.0 mi Calm Calm - N/A   Overcast
12:32 AM 48.2 °F 46.4 °F 93% 30.16 in 10.0 mi Calm Calm - N/A   Overcast
12:52 AM 50.0 °F 48.2 °F 94% 30.16 in 10.0 mi Calm Calm - N/A   Overcast
1:12 AM 51.8 °F 46.4 °F 82% 30.15 in 10.0 mi NNE 3.5 mph - N/A   Overcast
1:32 AM 51.8 °F 46.4 °F 82% 30.15 in 10.0 mi North 3.5 mph - N/A   Overcast
1:52 AM 51.8 °F 46.4 °F 82% 30.15 in 10.0 mi Calm Calm - N/A   Overcast
2:12 AM 51.8 °F 46.4 °F 82% 30.15 in 10.0 mi Calm Calm - N/A   Overcast
2:32 AM 51.8 °F 46.4 °F 82% 30.14 in 10.0 mi Calm Calm - N/A   Overcast
2:53 AM 51.8 °F 46.4 °F 82% 30.15 in 10.0 mi North 4.6 mph - N/A   Overcast
3:13 AM 51.8 °F 46.4 °F 82% 30.15 in 10.0 mi Calm Calm - N/A   Overcast
3:33 AM 51.8 °F 46.4 °F 82% 30.14 in 10.0 mi Calm Calm - N/A   Overcast
3:53 AM 51.8 °F 46.4 °F 82% 30.13 in 10.0 mi NE 3.5 mph - N/A   Overcast
4:13 AM 51.8 °F 46.4 °F 82% 30.15 in 10.0 mi Calm Calm - N/A   Overcast
4:33 AM 51.8 °F 48.2 °F 88% 30.15 in 10.0 mi Calm Calm - N/A   Overcast
4:53 AM 51.8 °F 48.2 °F 88% 30.15 in 10.0 mi Calm Calm - N/A   Overcast
5:13 AM 51.8 °F 48.2 °F 88% 30.15 in 10.0 mi Calm Calm - N/A   Overcast
5:34 AM 51.8 °F 48.2 °F 88% 30.14 in 10.0 mi Calm Calm - N/A   Overcast
5:54 AM 51.8 °F 48.2 °F 88% 30.13 in 10.0 mi Calm Calm - N/A   Overcast
6:14 AM 51.8 °F 46.4 °F 82% 30.13 in 10.0 mi NNE 3.5 mph - N/A   Overcast
6:34 AM 51.8 °F 46.4 °F 82% 30.12 in 10.0 mi NNE 4.6 mph - N/A   Mostly Cloudy
6:54 AM 48.2 °F 46.4 °F 93% 30.13 in 10.0 mi Calm Calm - N/A   Clear
7:14 AM 46.4 °F 46.4 °F 100% 30.13 in 10.0 mi Calm Calm - N/A   Clear
7:54 AM 46.4 °F 44.6 °F 93% 30.14 in 10.0 mi Calm Calm - N/A   Clear
8:14 AM 46.4 °F 46.4 °F 100% 30.14 in 10.0 mi Calm Calm - N/A   Scattered Clouds
8:34 AM 48.2 °F 46.4 °F 93% 30.14 in 10.0 mi Calm Calm - N/A   Overcast
8:55 AM 51.8 °F 48.2 °F 88% 30.14 in 10.0 mi Calm Calm - N/A   Overcast
9:15 AM 51.8 °F 48.2 °F 88% 30.14 in 10.0 mi Calm Calm - N/A   Mostly Cloudy
9:35 AM 53.6 °F 48.2 °F 82% 30.15 in 10.0 mi Calm Calm - N/A   Scattered Clouds
9:55 AM 55.4 °F 48.2 °F 77% 30.15 in 10.0 mi Calm Calm - N/A   Clear
10:15 AM 57.2 °F 48.2 °F 72% 30.15 in 10.0 mi Calm Calm - N/A   Clear
10:35 AM 59.0 °F 48.2 °F 67% 30.15 in 10.0 mi Calm Calm - N/A   Clear
10:55 AM 60.8 °F 50.0 °F 68% 30.16 in 10.0 mi Calm Calm - N/A   Mostly Cloudy
11:15 AM 60.8 °F 48.2 °F 63% 30.16 in 10.0 mi Calm Calm - N/A   Overcast
11:35 AM 62.6 °F 46.4 °F 55% 30.16 in 10.0 mi East 3.5 mph - N/A   Overcast
11:56 AM 62.6 °F 42.8 °F 48% 30.16 in 10.0 mi Calm Calm - N/A   Overcast
12:16 PM 64.4 °F 44.6 °F 49% 30.15 in 10.0 mi NNE 4.6 mph - N/A   Mostly Cloudy
12:31 PM 64.4 °F 42.8 °F 45% 30.15 in 10.0 mi East 3.5 mph - N/A   Scattered Clouds
12:51 PM 64.4 °F 42.8 °F 45% 30.15 in 10.0 mi North 3.5 mph - N/A   Clear
1:11 PM 64.4 °F 42.8 °F 45% 30.14 in 10.0 mi ESE 6.9 mph - N/A   Clear
1:31 PM 64.4 °F 42.8 °F 45% 30.14 in 10.0 mi SE 5.8 mph - N/A   Clear
1:51 PM 64.4 °F 42.8 °F 45% 30.13 in 10.0 mi SSE 3.5 mph - N/A   Clear
2:11 PM 66.2 °F 44.6 °F 46% 30.12 in 10.0 mi ESE 5.8 mph - N/A   Clear
2:31 PM 64.4 °F 44.6 °F 49% 30.12 in 10.0 mi South 8.1 mph - N/A   Clear
2:52 PM 64.4 °F 44.6 °F 49% 30.11 in 10.0 mi SSE 6.9 mph - N/A   Clear
3:12 PM 64.4 °F 44.6 °F 49% 30.11 in 10.0 mi SSE 9.2 mph - N/A   Clear
3:32 PM 66.2 °F 46.4 °F 49% 30.10 in 10.0 mi SSE 9.2 mph - N/A   Scattered Clouds
3:52 PM 64.4 °F 46.4 °F 52% 30.11 in 10.0 mi SE 8.1 mph - N/A   Mostly Cloudy
4:12 PM 64.4 °F 46.4 °F 52% 30.10 in 10.0 mi SSE 4.6 mph - N/A   Mostly Cloudy
4:32 PM 64.4 °F 44.6 °F 49% 30.09 in 10.0 mi SSE 4.6 mph - N/A   Mostly Cloudy
4:52 PM 64.4 °F 46.4 °F 52% 30.09 in 10.0 mi SE 5.8 mph - N/A   Scattered Clouds
5:12 PM 64.4 °F 46.4 °F 52% 30.08 in 10.0 mi South 6.9 mph - N/A   Clear
5:32 PM 64.4 °F 46.4 °F 52% 30.08 in 10.0 mi SSE 6.9 mph - N/A   Clear
5:53 PM 62.6 °F 46.4 °F 55% 30.08 in 10.0 mi SSE 5.8 mph - N/A   Clear
6:13 PM 62.6 °F 46.4 °F 55% 30.07 in 10.0 mi SSE 4.6 mph - N/A   Scattered Clouds
6:33 PM 60.8 °F 46.4 °F 59% 30.07 in 10.0 mi South 4.6 mph - N/A   Scattered Clouds
6:53 PM 60.8 °F 46.4 °F 59% 30.07 in 10.0 mi Calm Calm - N/A   Scattered Clouds
7:13 PM 57.2 °F 46.4 °F 67% 30.07 in 10.0 mi Calm Calm - N/A   Clear
7:33 PM 55.4 °F 46.4 °F 72% 30.07 in 10.0 mi Calm Calm - N/A   Clear
7:53 PM 55.4 °F 48.2 °F 77% 30.07 in 10.0 mi Calm Calm - N/A   Clear
8:13 PM 51.8 °F 46.4 °F 82% 30.07 in 10.0 mi Calm Calm - N/A   Clear
8:33 PM 53.6 °F 48.2 °F 82% 30.07 in 10.0 mi Calm Calm - N/A   Clear
8:53 PM 51.8 °F 46.4 °F 82% 30.07 in 10.0 mi Calm Calm - N/A   Clear
9:14 PM 51.8 °F 46.4 °F 82% 30.07 in 10.0 mi Calm Calm - N/A   Clear
9:34 PM 51.8 °F 46.4 °F 82% 30.07 in 10.0 mi Calm Calm - N/A   Clear
9:54 PM 48.2 °F 46.4 °F 93% 30.07 in 10.0 mi Calm Calm - N/A   Clear
10:14 PM 48.2 °F 46.4 °F 93% 30.08 in 10.0 mi Calm Calm - N/A   Clear
10:34 PM 50.0 °F 46.4 °F 87% 30.08 in 10.0 mi Calm Calm - N/A   Mostly Cloudy
10:54 PM 50.0 °F 46.4 °F 87% 30.08 in 10.0 mi Calm Calm - N/A   Overcast
11:14 PM 50.0 °F 46.4 °F 87% 30.08 in 10.0 mi Calm Calm - N/A   Mostly Cloudy
11:34 PM 50.0 °F 46.4 °F 87% 30.08 in 10.0 mi Calm Calm - N/A   Scattered Clouds
11:54 PM 50.0 °F 46.4 °F 87% 30.08 in 10.0 mi Calm Calm - N/A   Scattered Clouds